Location: Newark
(0.5300°S, 127.4800°E)
Time: 10:54:35
(UTC+00:00)

Vanguard 3 - Pass Details

Date: 23 September 2019
Orbit: 508 x 3262 km, 33.3° (Epoch: 18 October)

Event Time Altitude Azimuth Distance (km) Brightness Sun altitude
Rises 08:14:52 0° 294° (WNW) 6,523 13.0 16.9°
Reaches altitude 10° 08:20:03 10° 289° (WNW) 5,113 12.9 15.6°
Maximum altitude 08:32:40 45° 221° (SW) 2,109 9.9 12.5°
Drops below altitude 10° 08:39:59 10° 150° (SSE) 3,005 9.8 10.7°
Sets 08:42:17 0° 142° (SE) 3,691 10.2 10.1°
